Retour au catalogue

SL-8 DEB

ActifPO
NORAD 18545·DEBRIS·🇷🇺 Russia

Lancé Dec 17, 1986 depuis Plesetsk Cosmodrome

Loading…

Prochains Passages (prochaines 24 heures)

TLE

FraisSource: Space-Track

Époque: Sep 14, 2026, 10:24 UTC

1 18545U 86100C   26257.43371916  .00001382  00000-0  71682-3 0  9995
2 18545  82.9183  59.4382 0013091 285.3687 103.8775 14.14136019 18257

Suivez SL-8 DEB en temps réel avec AllMySat

Download on the App Store